QPF
0.00 0.00 0.00 0.00 0.00 0.00 0.00 0.00 0.00 0.01 0.01 0.01 0.01 0.01 0.00 0.00 0.00 0.01 0.00 0.00 0.00 0.01 0.01 0.00 0.01 0.01 0.01 0.01 0.01 0.01 0.01 0.01 0.00 0.00 0.00 0.00 0.00 0.00 0.00 0.00 0.00 0.00 0.00
0.00 0.00 0.00 0.00 0.00 0.00 0.00 0.00 0.00 0.00 0.01 0.01 0.01 0.01 0.01 0.01 0.01 0.01 0.00 0.01 0.01 0.01 0.01 0.01 0.01 0.01 0.02 0.02 0.02 0.02 0.02 0.01 0.02 0.01 0.01 0.01 0.00 0.00 0.00 0.00 0.00 0.00 0.00
0.00 0.00 0.00 0.00 0.00 0.00 0.00 0.00 0.00 0.00 0.00 0.01 0.01 0.01 0.01 0.01 0.01 0.01 0.01 0.02 0.02 0.02 0.01 0.01 0.02 0.02 0.02 0.02 0.02 0.03 0.04 0.04 0.04 0.04 0.03 0.02 0.01 0.01 0.00 0.01 0.01 0.01 0.01
0.00 0.00 0.00 0.00 0.00 0.00 0.00 0.00 0.00 0.00 0.00 0.01 0.01 0.01 0.01 0.01 0.01 0.01 0.01 0.01 0.01 0.01 0.01 0.01 0.02 0.02 0.02 0.02 0.03 0.05 0.06 0.07 0.06 0.06 0.05 0.04 0.03 0.02 0.01 0.01 0.01 0.02 0.02
0.00 0.00 0.00 0.00 0.00 0.00 0.00 0.00 0.00 0.00 0.00 0.00 0.01 0.01 0.00 0.01 0.01 0.01 0.00 0.01 0.01 0.01 0.01 0.01 0.01 0.01 0.01 0.02 0.04 0.06 0.07 0.08 0.08 0.08 0.08 0.08 0.06 0.04 0.04 0.03 0.02 0.03 0.04
0.00 0.00 0.00 0.00 0.00 0.00 0.00 0.00 0.00 0.00 0.00 0.00 0.00 0.01 0.01 0.01 0.01 0.01 0.01 0.01 0.01 0.01 0.01 0.01 0.01 0.02 0.02 0.03 0.04 0.06 0.08 0.10 0.10 0.11 0.10 0.10 0.10 0.09 0.09 0.09 0.06 0.06 0.07
0.00 0.00 0.00 0.00 0.00 0.00 0.00 0.00 0.00 0.00 0.00 0.00 0.00 0.00 0.00 0.01 0.01 0.01 0.01 0.01 0.01 0.01 0.01 0.02 0.02 0.02 0.02 0.03 0.04 0.05 0.06 0.08 0.10 0.12 0.13 0.13 0.14 0.15 0.17 0.19 0.18 0.16 0.14
0.00 0.00 0.00 0.00 0.00 0.00 0.00 0.00 0.00 0.00 0.00 0.00 0.00 0.00 0.00 0.00 0.00 0.00 0.00 0.00 0.00 0.00 0.00 0.01 0.01 0.01 0.01 0.02 0.03 0.04 0.05 0.08 0.09 0.11 0.13 0.14 0.14 0.16 0.18 0.22 0.26 0.26 0.24
0.00 0.00 0.00 0.00 0.00 0.00 0.00 0.00 0.00 0.00 0.00 0.00 0.00 0.00 0.00 0.00 0.00 0.00 0.00 0.00 0.00 0.00 0.00 0.00 0.00 0.01 0.01 0.02 0.02 0.03 0.04 0.06 0.07 0.09 0.11 0.12 0.13 0.15 0.17 0.20 0.24 0.29 0.28
0.00 0.00 0.00 0.00 0.00 0.00 0.00 0.00 0.00 0.00 0.00 0.00 0.00 0.00 0.00 0.00 0.00 0.00 0.00 0.00 0.00 0.00 0.00 0.00 0.00 0.00 0.00 0.01 0.01 0.02 0.03 0.03 0.04 0.05 0.05 0.07 0.08 0.09 0.11 0.14 0.18 0.24 0.28
0.00 0.00 0.00 0.00 0.00 0.00 0.00 0.00 0.00 0.00 0.00 0.00 0.00 0.00 0.00 0.00 0.00 0.00 0.00 0.00 0.00 0.00 0.00 0.00 0.00 0.00 0.00 0.00 0.00 0.01 0.01 0.01 0.02 0.02 0.03 0.03 0.03 0.04 0.05 0.07 0.09 0.12 0.16
0.00 0.00 0.00 0.00 0.00 0.00 0.00 0.00 0.00 0.00 0.00 0.00 0.00 0.00 0.00 0.00 0.00 0.00 0.00 0.00 0.00 0.00 0.00 0.00 0.00 0.00 0.00 0.00 0.00 0.00 0.00 0.01 0.01 0.01 0.02 0.02 0.02 0.03 0.04 0.04 0.05 0.06 0.08
0.00 0.00 0.00 0.00 0.00 0.00 0.00 0.00 0.00 0.00 0.00 0.00 0.00 0.00 0.00 0.00 0.00 0.00 0.00 0.00 0.00 0.00 0.00 0.00 0.00 0.00 0.00 0.00 0.00 0.00 0.00 0.00 0.01 0.01 0.01 0.02 0.02 0.03 0.03 0.04 0.06 0.07 0.09
0.00 0.00 0.00 0.00 0.00 0.00 0.00 0.00 0.00 0.00 0.00 0.00 0.00 0.00 0.00 0.00 0.00 0.00 0.00 0.00 0.00 0.00 0.00 0.00 0.00 0.00 0.00 0.00 0.00 0.00 0.00 0.01 0.01 0.01 0.02 0.03 0.03 0.04 0.04 0.05 0.06 0.06 0.07
0.00 0.00 0.00 0.00 0.00 0.00 0.00 0.00 0.00 0.00 0.00 0.00 0.00 0.00 0.00 0.00 0.00 0.00 0.00 0.00 0.00 0.00 0.00 0.00 0.00 0.00 0.00 0.00 0.00 0.00 0.00 0.01 0.01 0.02 0.02 0.02 0.03 0.04 0.04 0.04 0.05 0.05 0.05
0.00 0.00 0.00 0.00 0.00 0.00 0.00 0.00 0.00 0.00 0.00 0.00 0.00 0.00 0.00 0.00 0.00 0.00 0.00 0.00 0.00 0.00 0.00 0.00 0.00 0.00 0.00 0.00 0.00 0.00 0.00 0.01 0.01 0.01 0.01 0.02 0.02 0.02 0.03 0.03 0.03 0.03 0.03
0.00 0.00 0.00 0.00 0.00 0.00 0.00 0.00 0.00 0.00 0.00 0.00 0.00 0.00 0.00 0.00 0.00 0.00 0.00 0.00 0.00 0.00 0.00 0.00 0.00 0.00 0.00 0.00 0.00 0.00 0.00 0.00 0.00 0.01 0.01 0.02 0.02 0.02 0.02 0.02 0.02 0.02 0.01
0.00 0.00 0.00 0.00 0.00 0.00 0.00 0.00 0.00 0.00 0.00 0.00 0.00 0.00 0.00 0.00 0.00 0.00 0.00 0.00 0.00 0.00 0.00 0.00 0.00 0.00 0.00 0.00 0.00 0.00 0.00 0.00 0.00 0.00 0.00 0.01 0.01 0.01 0.01 0.01 0.01 0.01 0.01
0.00 0.00 0.00 0.00 0.00 0.00 0.00 0.00 0.00 0.00 0.00 0.00 0.00 0.00 0.00 0.00 0.00 0.00 0.00 0.00 0.00 0.00 0.00 0.00 0.00 0.00 0.00 0.00 0.00 0.00 0.00 0.00 0.00 0.00 0.00 0.00 0.01 0.00 0.00 0.00 0.00 0.00 0.00
0.00 0.00 0.00 0.00 0.00 0.00 0.00 0.00 0.00 0.00 0.00 0.00 0.00 0.00 0.00 0.00 0.00 0.00 0.00 0.00 0.00 0.00 0.00 0.00 0.00 0.00 0.00 0.00 0.00 0.00 0.00 0.00 0.00 0.00 0.00 0.00 0.00 0.00 0.00 0.00 0.00 0.00 0.00
0.00 0.00 0.00 0.00 0.00 0.00 0.00 0.00 0.00 0.00 0.00 0.00 0.00 0.00 0.00 0.00 0.00 0.00 0.00 0.00 0.00 0.00 0.00 0.00 0.00 0.00 0.00 0.00 0.00 0.00 0.00 0.00 0.00 0.00 0.00 0.00 0.00 0.00 0.00 0.00 0.00 0.00 0.00
0.00 0.00 0.00 0.00 0.00 0.00 0.00 0.00 0.00 0.00 0.00 0.00 0.00 0.00 0.00 0.00 0.00 0.00 0.00 0.00 0.00 0.00 0.00 0.00 0.00 0.00 0.00 0.00 0.00 0.00 0.00 0.00 0.00 0.00 0.00 0.00 0.00 0.00 0.00 0.00 0.00 0.00 0.00
0.00 0.00 0.00 0.00 0.00 0.00 0.00 0.00 0.00 0.00 0.00 0.00 0.00 0.00 0.00 0.00 0.00 0.00 0.00 0.00 0.00 0.00 0.00 0.00 0.00 0.00 0.00 0.00 0.00 0.00 0.00 0.00 0.00 0.00 0.00 0.00 0.00 0.00 0.00 0.00 0.00 0.00 0.00
0.00 0.00 0.00 0.00 0.00 0.00 0.00 0.00 0.00 0.00 0.00 0.00 0.00 0.00 0.00 0.00 0.00 0.00 0.00 0.00 0.00 0.00 0.00 0.00 0.00 0.00 0.00 0.00 0.00 0.00 0.00 0.00 0.00 0.00 0.00 0.00 0.00 0.00 0.00 0.00 0.00 0.00 0.00
0.00 0.00 0.00 0.00 0.00 0.00 0.00 0.00 0.00 0.00 0.00 0.00 0.00 0.00 0.00 0.00 0.00 0.00 0.00 0.00 0.00 0.00 0.00 0.00 0.00 0.00 0.00 0.00 0.00 0.00 0.00 0.00 0.00 0.00 0.00 0.00 0.00 0.00 0.00 0.00 0.00 0.00 0.00
0.00 0.00 0.00 0.00 0.00 0.00 0.00 0.00 0.00 0.00 0.00 0.00 0.00 0.00 0.00 0.00 0.00 0.00 0.00 0.00 0.00 0.00 0.00 0.00 0.00 0.00 0.00 0.00 0.00 0.00 0.00 0.00 0.00 0.00 0.00 0.00 0.00 0.00 0.00 0.00 0.00 0.00 0.00
MSLP
1014.17 1014.23 1014.27 1014.29 1014.29 1014.28 1014.30 1014.37 1014.50 1014.70 1014.96 1015.28 1015.61 1015.92 1016.21 1016.44 1016.63 1016.76 1016.88 1016.99 1017.13 1017.30 1017.52 1017.78 1018.08 1018.40 1018.74 1019.06 1019.37 1019.67 1019.93 1020.18 1020.40 1020.60 1020.76 1020.90 1020.99 1021.04 1021.05 1021.03 1021.00 1020.96 1020.94
1014.25 1014.31 1014.34 1014.34 1014.31 1014.27 1014.26 1014.30 1014.42 1014.61 1014.88 1015.19 1015.51 1015.81 1016.06 1016.24 1016.37 1016.44 1016.49 1016.56 1016.65 1016.79 1017.00 1017.26 1017.56 1017.89 1018.22 1018.55 1018.86 1019.14 1019.41 1019.65 1019.88 1020.09 1020.29 1020.45 1020.58 1020.67 1020.73 1020.74 1020.73 1020.71 1020.69
1014.27 1014.36 1014.41 1014.41 1014.37 1014.31 1014.28 1014.30 1014.41 1014.59 1014.85 1015.16 1015.46 1015.74 1015.96 1016.11 1016.18 1016.20 1016.19 1016.20 1016.24 1016.34 1016.51 1016.75 1017.03 1017.33 1017.64 1017.95 1018.23 1018.50 1018.74 1018.98 1019.21 1019.44 1019.66 1019.86 1020.04 1020.18 1020.29 1020.35 1020.39 1020.42 1020.44
1014.23 1014.38 1014.48 1014.51 1014.49 1014.43 1014.39 1014.40 1014.49 1014.66 1014.90 1015.19 1015.48 1015.73 1015.93 1016.04 1016.07 1016.05 1016.00 1015.95 1015.94 1016.00 1016.12 1016.30 1016.53 1016.79 1017.05 1017.31 1017.56 1017.79 1018.02 1018.24 1018.47 1018.70 1018.94 1019.18 1019.40 1019.60 1019.77 1019.91 1020.02 1020.11 1020.20
1014.18 1014.41 1014.59 1014.67 1014.69 1014.65 1014.61 1014.61 1014.68 1014.82 1015.03 1015.29 1015.55 1015.79 1015.96 1016.05 1016.06 1016.01 1015.93 1015.85 1015.80 1015.80 1015.86 1015.98 1016.15 1016.34 1016.54 1016.75 1016.95 1017.14 1017.33 1017.54 1017.76 1018.00 1018.25 1018.51 1018.77 1019.01 1019.24 1019.45 1019.63 1019.81 1019.97
1014.14 1014.48 1014.75 1014.91 1014.99 1014.99 1014.96 1014.95 1014.98 1015.09 1015.26 1015.48 1015.71 1015.92 1016.08 1016.16 1016.17 1016.12 1016.03 1015.93 1015.85 1015.81 1015.81 1015.87 1015.96 1016.08 1016.21 1016.35 1016.49 1016.64 1016.81 1016.99 1017.20 1017.43 1017.69 1017.96 1018.24 1018.51 1018.79 1019.05 1019.30 1019.54 1019.78
1014.13 1014.59 1014.97 1015.23 1015.37 1015.42 1015.42 1015.40 1015.41 1015.48 1015.60 1015.77 1015.97 1016.15 1016.30 1016.39 1016.42 1016.38 1016.31 1016.21 1016.12 1016.05 1016.01 1016.00 1016.02 1016.06 1016.13 1016.20 1016.29 1016.40 1016.53 1016.69 1016.88 1017.10 1017.35 1017.62 1017.90 1018.19 1018.48 1018.77 1019.06 1019.35 1019.65
1014.17 1014.74 1015.22 1015.58 1015.81 1015.92 1015.95 1015.94 1015.93 1015.97 1016.05 1016.17 1016.33 1016.49 1016.64 1016.74 1016.79 1016.79 1016.75 1016.68 1016.59 1016.51 1016.43 1016.38 1016.34 1016.32 1016.32 1016.34 1016.38 1016.45 1016.56 1016.70 1016.88 1017.08 1017.31 1017.56 1017.82 1018.09 1018.37 1018.66 1018.96 1019.27 1019.60
1014.24 1014.89 1015.48 1015.93 1016.24 1016.42 1016.50 1016.52 1016.51 1016.53 1016.58 1016.67 1016.80 1016.94 1017.09 1017.21 1017.29 1017.33 1017.33 1017.29 1017.22 1017.14 1017.05 1016.96 1016.87 1016.80 1016.76 1016.73 1016.74 1016.79 1016.88 1017.01 1017.17 1017.36 1017.57 1017.79 1018.02 1018.25 1018.49 1018.75 1019.03 1019.33 1019.66
1014.30 1015.02 1015.67 1016.21 1016.61 1016.86 1017.01 1017.07 1017.10 1017.12 1017.16 1017.23 1017.34 1017.48 1017.62 1017.76 1017.87 1017.95 1017.98 1017.98 1017.94 1017.87 1017.77 1017.66 1017.55 1017.45 1017.37 1017.32 1017.32 1017.36 1017.44 1017.57 1017.73 1017.90 1018.09 1018.28 1018.46 1018.65 1018.84 1019.05 1019.28 1019.54 1019.83
1014.31 1015.06 1015.76 1016.36 1016.83 1017.18 1017.41 1017.55 1017.63 1017.69 1017.75 1017.83 1017.93 1018.06 1018.21 1018.35 1018.48 1018.58 1018.65 1018.68 1018.66 1018.60 1018.51 1018.39 1018.27 1018.16 1018.07 1018.01 1018.01 1018.06 1018.15 1018.29 1018.45 1018.63 1018.80 1018.96 1019.11 1019.24 1019.37 1019.52 1019.69 1019.89 1020.13
1014.25 1014.99 1015.71 1016.35 1016.90 1017.33 1017.66 1017.89 1018.06 1018.19 1018.29 1018.40 1018.52 1018.65 1018.79 1018.94 1019.07 1019.18 1019.26 1019.31 1019.30 1019.26 1019.18 1019.07 1018.95 1018.85 1018.76 1018.72 1018.73 1018.80 1018.92 1019.07 1019.25 1019.43 1019.60 1019.74 1019.86 1019.95 1020.03 1020.11 1020.21 1020.35 1020.52
1014.11 1014.81 1015.52 1016.19 1016.80 1017.32 1017.75 1018.09 1018.37 1018.58 1018.76 1018.92 1019.06 1019.21 1019.34 1019.48 1019.61 1019.71 1019.79 1019.84 1019.85 1019.82 1019.75 1019.66 1019.56 1019.47 1019.41 1019.39 1019.43 1019.53 1019.67 1019.85 1020.05 1020.24 1020.41 1020.54 1020.64 1020.70 1020.74 1020.77 1020.81 1020.88 1020.99
1013.88 1014.53 1015.22 1015.91 1016.56 1017.16 1017.69 1018.15 1018.54 1018.86 1019.12 1019.34 1019.52 1019.68 1019.82 1019.95 1020.06 1020.16 1020.23 1020.28 1020.30 1020.28 1020.23 1020.17 1020.10 1020.04 1020.01 1020.02 1020.09 1020.21 1020.38 1020.58 1020.79 1020.99 1021.17 1021.30 1021.38 1021.42 1021.43 1021.42 1021.42 1021.44 1021.49
1013.59 1014.21 1014.87 1015.55 1016.24 1016.90 1017.53 1018.09 1018.58 1019.00 1019.35 1019.64 1019.87 1020.05 1020.20 1020.33 1020.44 1020.53 1020.60 1020.65 1020.68 1020.69 1020.67 1020.64 1020.60 1020.58 1020.58 1020.62 1020.71 1020.85 1021.03 1021.24 1021.45 1021.66 1021.83 1021.95 1022.03 1022.06 1022.05 1022.02 1021.99 1021.97 1021.97
1013.31 1013.89 1014.52 1015.20 1015.91 1016.61 1017.30 1017.94 1018.53 1019.03 1019.46 1019.81 1020.09 1020.31 1020.49 1020.62 1020.74 1020.84 1020.93 1021.00 1021.05 1021.09 1021.12 1021.12 1021.13 1021.14 1021.17 1021.23 1021.33 1021.47 1021.64 1021.84 1022.04 1022.22 1022.38 1022.49 1022.56 1022.58 1022.56 1022.51 1022.46 1022.42 1022.40
1013.09 1013.64 1014.25 1014.92 1015.63 1016.35 1017.07 1017.76 1018.40 1018.97 1019.46 1019.87 1020.20 1020.46 1020.67 1020.85 1020.99 1021.12 1021.24 1021.35 1021.45 1021.54 1021.60 1021.66 1021.70 1021.74 1021.79 1021.86 1021.95 1022.07 1022.22 1022.37 1022.54 1022.69 1022.81 1022.90 1022.95 1022.95 1022.93 1022.88 1022.82 1022.77 1022.73
1012.97 1013.51 1014.11 1014.76 1015.44 1016.15 1016.87 1017.57 1018.23 1018.83 1019.37 1019.82 1020.20 1020.51 1020.78 1021.00 1021.20 1021.39 1021.56 1021.73 1021.89 1022.03 1022.15 1022.24 1022.32 1022.38 1022.44 1022.49 1022.56 1022.64 1022.74 1022.84 1022.95 1023.05 1023.13 1023.18 1023.20 1023.19 1023.16 1023.11 1023.05 1022.99 1022.94
1012.98 1013.53 1014.12 1014.74 1015.39 1016.06 1016.74 1017.42 1018.07 1018.67 1019.22 1019.70 1020.13 1020.49 1020.82 1021.11 1021.38 1021.63 1021.88 1022.12 1022.34 1022.54 1022.70 1022.84 1022.94 1023.01 1023.05 1023.08 1023.11 1023.14 1023.18 1023.22 1023.26 1023.31 1023.33 1023.35 1023.34 1023.32 1023.27 1023.21 1023.15 1023.09 1023.05
1013.13 1013.69 1014.26 1014.85 1015.45 1016.07 1016.69 1017.32 1017.93 1018.51 1019.05 1019.55 1020.01 1020.43 1020.81 1021.17 1021.52 1021.85 1022.18 1022.48 1022.76 1023.01 1023.21 1023.37 1023.47 1023.54 1023.56 1023.56 1023.55 1023.52 1023.50 1023.48 1023.47 1023.46 1023.45 1023.43 1023.40 1023.36 1023.30 1023.24 1023.18 1023.12 1023.07
1013.37 1013.95 1014.50 1015.05 1015.60 1016.16 1016.72 1017.28 1017.83 1018.38 1018.90 1019.41 1019.89 1020.35 1020.79 1021.21 1021.63 1022.03 1022.41 1022.77 1023.09 1023.37 1023.60 1023.76 1023.86 1023.91 1023.91 1023.87 1023.81 1023.75 1023.68 1023.62 1023.57 1023.53 1023.49 1023.45 1023.40 1023.35 1023.29 1023.23 1023.17 1023.11 1023.06
1013.66 1014.24 1014.78 1015.29 1015.80 1016.29 1016.78 1017.28 1017.79 1018.29 1018.79 1019.29 1019.78 1020.27 1020.75 1021.23 1021.69 1022.14 1022.57 1022.96 1023.30 1023.58 1023.81 1023.96 1024.04 1024.06 1024.04 1023.97 1023.89 1023.80 1023.71 1023.64 1023.57 1023.52 1023.48 1023.44 1023.39 1023.35 1023.29 1023.23 1023.17 1023.10 1023.04
1013.91 1014.49 1015.01 1015.50 1015.96 1016.41 1016.86 1017.31 1017.77 1018.24 1018.72 1019.21 1019.71 1020.21 1020.71 1021.21 1021.71 1022.18 1022.62 1023.01 1023.35 1023.62 1023.82 1023.95 1024.01 1024.01 1023.96 1023.89 1023.79 1023.70 1023.62 1023.56 1023.51 1023.48 1023.45 1023.43 1023.41 1023.37 1023.33 1023.27 1023.20 1023.12 1023.05
1014.06 1014.62 1015.13 1015.60 1016.04 1016.47 1016.89 1017.31 1017.75 1018.20 1018.66 1019.15 1019.65 1020.16 1020.67 1021.18 1021.67 1022.14 1022.57 1022.94 1023.25 1023.50 1023.67 1023.76 1023.79 1023.77 1023.72 1023.65 1023.57 1023.50 1023.45 1023.43 1023.42 1023.43 1023.44 1023.45 1023.46 1023.44 1023.40 1023.35 1023.27 1023.18 1023.09
1014.04 1014.58 1015.08 1015.54 1015.98 1016.40 1016.82 1017.24 1017.68 1018.12 1018.59 1019.07 1019.57 1020.08 1020.59 1021.09 1021.57 1022.02 1022.42 1022.77 1023.04 1023.25 1023.38 1023.45 1023.46 1023.44 1023.39 1023.33 1023.29 1023.26 1023.26 1023.29 1023.33 1023.39 1023.45 1023.50 1023.53 1023.54 1023.51 1023.45 1023.36 1023.26 1023.14
1013.84 1014.35 1014.83 1015.29 1015.73 1016.17 1016.61 1017.05 1017.50 1017.96 1018.44 1018.93 1019.44 1019.95 1020.45 1020.94 1021.40 1021.82 1022.19 1022.50 1022.75 1022.92 1023.03 1023.08 1023.09 1023.07 1023.04 1023.01 1023.01 1023.03 1023.08 1023.16 1023.26 1023.37 1023.47 1023.55 1023.61 1023.62 1023.59 1023.53 1023.43 1023.31 1023.17
Thickness
5654 5659 5664 5669 5673 5677 5680 5682 5684 5686 5687 5686 5686 5685 5686 5686 5686 5686 5685 5683 5681 5679 5677 5675 5672 5669 5666 5663 5659 5655 5651 5646 5642 5637 5634 5633 5632 5630 5628 5625 5623 5621 5618
5645 5650 5655 5659 5664 5667 5671 5674 5676 5678 5680 5681 5681 5681 5681 5681 5681 5681 5680 5679 5677 5675 5673 5671 5668 5665 5662 5659 5655 5651 5646 5642 5637 5631 5624 5622 5622 5623 5622 5619 5616 5614 5611
5637 5641 5645 5649 5653 5657 5661 5666 5667 5670 5672 5674 5674 5674 5673 5673 5673 5673 5673 5672 5671 5670 5668 5666 5664 5661 5658 5655 5652 5648 5642 5637 5632 5628 5621 5614 5616 5614 5613 5611 5609 5606 5602
5630 5633 5637 5640 5644 5648 5652 5656 5659 5661 5663 5665 5666 5666 5665 5664 5665 5665 5665 5665 5664 5663 5662 5660 5658 5656 5653 5650 5647 5644 5639 5633 5627 5621 5618 5615 5612 5605 5604 5601 5598 5595 5592
5622 5625 5629 5632 5635 5638 5642 5645 5649 5651 5653 5655 5656 5656 5656 5656 5656 5656 5657 5657 5656 5655 5654 5653 5652 5649 5647 5645 5642 5639 5634 5630 5624 5618 5612 5606 5601 5598 5593 5593 5588 5582 5580
5613 5616 5620 5623 5625 5628 5631 5635 5638 5639 5642 5644 5646 5647 5647 5647 5647 5647 5647 5647 5647 5647 5646 5645 5644 5642 5640 5638 5635 5632 5628 5624 5619 5614 5608 5601 5595 5591 5585 5583 5578 5571 5566
5604 5607 5609 5612 5614 5617 5620 5623 5626 5628 5630 5632 5634 5636 5637 5637 5637 5637 5638 5638 5637 5637 5636 5636 5635 5634 5632 5630 5628 5625 5621 5617 5612 5608 5602 5596 5591 5584 5578 5573 5567 5558 5551
5595 5598 5600 5601 5603 5607 5609 5612 5614 5616 5618 5620 5622 5624 5625 5626 5627 5627 5627 5627 5626 5626 5626 5626 5625 5624 5623 5622 5619 5616 5613 5608 5604 5599 5594 5588 5581 5574 5568 5561 5553 5544 5537
5587 5588 5589 5591 5593 5595 5598 5600 5603 5604 5606 5608 5611 5612 5613 5614 5615 5615 5616 5615 5615 5615 5615 5615 5614 5613 5612 5611 5609 5606 5602 5598 5594 5588 5583 5576 5569 5562 5555 5548 5541 5534 5528
5578 5578 5579 5580 5582 5584 5586 5588 5591 5592 5594 5596 5598 5600 5600 5602 5603 5603 5603 5603 5603 5604 5603 5603 5602 5601 5600 5598 5596 5593 5590 5586 5580 5574 5568 5561 5553 5546 5540 5533 5526 5520 5515
5569 5568 5569 5570 5571 5572 5575 5577 5579 5580 5582 5584 5585 5587 5588 5589 5590 5591 5590 5591 5591 5591 5591 5590 5589 5587 5586 5584 5582 5579 5576 5571 5565 5559 5553 5545 5538 5531 5524 5517 5510 5504 5499
5561 5560 5560 5560 5560 5561 5563 5565 5567 5568 5570 5572 5573 5574 5575 5577 5577 5577 5578 5578 5578 5578 5577 5576 5575 5573 5571 5569 5567 5564 5560 5556 5550 5544 5538 5531 5524 5517 5509 5502 5495 5489 5484
5553 5551 5550 5551 5551 5551 5553 5554 5556 5557 5559 5560 5561 5562 5563 5564 5564 5564 5565 5565 5565 5564 5563 5562 5561 5558 5556 5554 5552 5548 5544 5539 5534 5528 5523 5516 5510 5503 5495 5489 5482 5477 5472
5546 5544 5542 5542 5542 5542 5543 5544 5545 5547 5548 5549 5549 5550 5550 5551 5551 5552 5552 5552 5551 5551 5550 5548 5546 5544 5542 5540 5537 5533 5529 5524 5519 5514 5509 5503 5497 5490 5484 5478 5471 5465 5460
5540 5539 5536 5534 5533 5533 5533 5534 5535 5536 5538 5538 5538 5538 5539 5539 5540 5539 5539 5539 5539 5538 5536 5535 5533 5532 5529 5526 5523 5520 5515 5510 5505 5500 5496 5491 5485 5480 5474 5468 5461 5456 5451
5538 5535 5533 5529 5526 5526 5526 5526 5526 5527 5528 5528 5527 5527 5528 5528 5528 5527 5527 5526 5525 5524 5523 5522 5521 5520 5517 5514 5511 5506 5501 5497 5492 5487 5482 5478 5473 5469 5465 5460 5454 5449 5443
5536 5533 5529 5526 5523 5521 5520 5519 5518 5518 5518 5518 5518 5517 5517 5517 5517 5516 5515 5514 5513 5511 5510 5509 5508 5506 5504 5502 5498 5494 5488 5484 5479 5475 5471 5467 5463 5457 5452 5449 5444 5440 5436
5533 5529 5525 5520 5517 5515 5514 5512 5511 5510 5509 5509 5508 5508 5508 5507 5506 5505 5504 5502 5501 5499 5497 5496 5494 5493 5492 5489 5485 5481 5476 5472 5468 5464 5460 5456 5452 5449 5443 5439 5434 5430 5426
5529 5524 5519 5515 5511 5509 5507 5505 5503 5502 5501 5501 5500 5500 5499 5498 5496 5495 5493 5492 5490 5488 5486 5484 5482 5480 5479 5477 5474 5470 5465 5461 5457 5454 5450 5446 5443 5441 5436 5430 5425 5421 5417
5519 5515 5511 5508 5505 5502 5501 5498 5496 5495 5494 5494 5493 5492 5491 5489 5488 5486 5484 5482 5480 5477 5475 5473 5471 5469 5468 5467 5464 5460 5456 5451 5447 5444 5441 5438 5435 5432 5428 5422 5416 5412 5407
5510 5507 5504 5501 5499 5496 5494 5492 5490 5489 5488 5487 5486 5484 5483 5481 5479 5477 5475 5473 5470 5467 5465 5462 5461 5459 5458 5457 5455 5451 5447 5442 5438 5435 5431 5429 5427 5424 5420 5415 5409 5405 5401
5501 5499 5496 5493 5491 5490 5489 5486 5484 5483 5482 5480 5478 5476 5475 5473 5471 5469 5466 5464 5461 5458 5455 5453 5451 5449 5448 5447 5446 5443 5440 5436 5431 5427 5423 5420 5419 5415 5411 5406 5402 5398 5392
5495 5493 5490 5487 5485 5484 5483 5481 5479 5477 5475 5473 5471 5469 5468 5466 5464 5461 5459 5456 5453 5450 5447 5445 5443 5441 5439 5438 5437 5435 5432 5428 5423 5420 5417 5414 5411 5406 5401 5397 5393 5388 5380
5490 5488 5485 5482 5480 5479 5478 5477 5474 5472 5470 5467 5465 5462 5460 5458 5456 5454 5452 5449 5446 5443 5442 5439 5437 5434 5431 5429 5427 5425 5422 5420 5416 5412 5409 5405 5401 5397 5393 5388 5382 5376 5370
5486 5484 5482 5480 5477 5475 5473 5471 5469 5467 5464 5462 5459 5457 5455 5452 5449 5448 5445 5443 5442 5440 5437 5435 5432 5427 5424 5424 5422 5418 5415 5411 5408 5404 5400 5395 5391 5386 5382 5377 5371 5365 5359
5482 5480 5478 5477 5474 5472 5469 5468 5466 5463 5460 5457 5454 5451 5449 5445 5443 5440 5438 5438 5437 5436 5434 5431 5427 5424 5422 5419 5416 5413 5410 5406 5403 5397 5391 5386 5381 5376 5371 5366 5361 5355 5349